Location: Unspecified
(54.1780°N, 0.0000°E)
Time: 17:46:44
(UTC+00:00)

Vanguard 2 - Pass Details

Date: 21 June 2019
Orbit: 553 x 2938 km, 32.9° (Epoch: 18 July)

Event Time Altitude Azimuth Distance (km) Brightness Sun altitude
Rises 13:56:23 0° 252° (WSW) 4,801 12.1 52.5°
Reaches altitude 10° 14:02:00 10° 226° (SW) 4,351 12.2 51.9°
Maximum altitude 14:06:33 13° 204° (SSW) 4,496 12.2 51.4°
Drops below altitude 10° 14:11:46 10° 183° (S) 5,108 12.2 50.8°
Sets 14:19:59 0° 160° (SSE) 6,548 12.4 49.9°
